Victoria, British Columbia

2:02 PM PDT on October 18, 2017 (GMT -0700)
Victoria International

Weather History for CYYJ - October, 2014

Change the Weather History Date:

Thursday, October 23, 2014

  Actual Average Record
Temperature  
Mean Temperature 51 °F -  
Max Temperature 57 °F 51 °F 68 °F (2007)
Min Temperature 44 °F 37 °F 37 °F (1996)
Degree Days  
Heating Degree Days 14    
Growing Degree Days 1 (Base 50)    
Moisture  
Dew Point 47 °F    
Average Humidity 88    
Maximum Humidity 100    
Minimum Humidity 63    
Precipitation  
Precipitation 0.31 in 0.16 in - ()
Sea Level Pressure  
Sea Level Pressure 29.75 in    
Wind  
Wind Speed 7 mph ()    
Max Wind Speed 24 mph    
Max Gust Speed 37 mph    
Visibility 12.7 miles    
Events Rain    
Averages and records for this station are not official NWS values.
T = Trace of Precipitation, MM = Missing Value Source: Averaged Metar Reports

Daily Weather History Graph

Daily Weather History Graph

Search for Another Location

Airport or City:

Trip Planner

Search our weather history database for the weather conditions in past years. The results will help you decide how hot, cold, wet, or windy it might be!

Date:

Astronomy

Oct. 23, 2014 Rise Set
Actual Time 7:46 AM PDT 6:08 PM PDT
Civil Twilight 7:14 AM PDT 6:41 PM PDT
Nautical Twilight 6:37 AM PDT 7:17 PM PDT
Astronomical Twilight 6:00 AM PDT 7:54 PM PDT
Moon 7:30 AM PDT (10/23) 6:13 PM PDT (10/23)
Length of Visible Light 11h 27m
Length of Day
10h 22m
Waning Crescent, 0% of the Moon is Illuminated
Oct 23
Waning Crescent
Oct 23
New
Oct 30
First Quarter
Nov 6
Full
Nov 14
Last Quarter

Hourly Weather History & Observations

Time (PDT) Temp. Windchill Dew Point Humidity Pressure Visibility Wind Dir Wind Speed Gust Speed Precip Events Conditions
12:00 AM 53.6 °F - 44.6 °F 72% 29.59 in 20.0 mi South 24.2 mph 36.8 mph N/A Rain Light Rain
12:39 AM 51.8 °F - 46.4 °F 82% 29.63 in 20.0 mi WSW 8.1 mph - N/A   Mostly Cloudy
1:00 AM 51.8 °F - 46.4 °F 82% 29.65 in 20.0 mi SW 6.9 mph - N/A   Mostly Cloudy
2:00 AM 50.0 °F - 44.6 °F 82% 29.66 in 30.0 mi South 6.9 mph - N/A   Partly Cloudy
3:00 AM 48.2 °F - 44.6 °F 87% 29.68 in 30.0 mi South 3.5 mph - N/A   Mostly Cloudy
4:00 AM 50.0 °F - 48.2 °F 94% 29.67 in 30.0 mi SE 9.2 mph - N/A   Mostly Cloudy
4:27 AM 50.0 °F - 48.2 °F 94% 29.68 in 30.0 mi SE 5.8 mph - N/A Rain Light Rain
5:00 AM 51 °F - 49 °F 88% 29.66 in 28 mi SE 3.5 mph - - Rain Light Rain
5:00 AM 51.8 °F - 48.2 °F 88% 29.66 in 30.0 mi East 3.5 mph - N/A Rain Light Rain
6:00 AM 50.0 °F - 48.2 °F 94% 29.68 in 15.0 mi Variable 2.3 mph - N/A Rain Light Rain
6:04 AM 50.0 °F - 48.2 °F 94% 29.68 in 12.0 mi Variable 2.3 mph - N/A Rain Rain
6:07 AM 50.0 °F - 48.2 °F 94% 29.68 in 7.0 mi Calm Calm - N/A Rain Heavy Rain
6:16 AM 50.0 °F - 48.2 °F 94% 29.67 in 7.0 mi Variable 5.8 mph - N/A Rain Rain
6:20 AM 50.0 °F - 48.2 °F 94% 29.67 in 7.0 mi NNE 4.6 mph - N/A Rain Light Rain
6:41 AM 50.0 °F - 48.2 °F 94% 29.67 in 6.0 mi Calm Calm - N/A   Overcast
7:00 AM 51.8 °F - 48.2 °F 88% 29.67 in 10.0 mi ESE 3.5 mph - N/A Rain Light Rain
7:24 AM 50.0 °F - 48.2 °F 94% 29.68 in 7.0 mi Variable 2.3 mph - N/A Rain Light Rain
8:00 AM 50.0 °F - 50.0 °F 100% 29.67 in 6.0 mi East 3.5 mph - N/A Rain Light Rain
8:21 AM 50.0 °F - 50.0 °F 100% 29.69 in 12.0 mi NW 4.6 mph - N/A Rain Light Rain
8:31 AM 50.0 °F - 48.2 °F 94% 29.70 in 10.0 mi WNW 8.1 mph - N/A Rain Light Rain
8:43 AM 50.0 °F - 48.2 °F 94% 29.70 in 5.0 mi WNW 9.2 mph - N/A Rain Rain
9:00 AM 48.2 °F - 46.4 °F 93% 29.70 in 5.0 mi WNW 5.8 mph - N/A Rain Rain
9:18 AM 48.2 °F - 46.4 °F 93% 29.68 in 12.0 mi Calm Calm - N/A Rain Light Rain
9:37 AM 48.2 °F - 48.2 °F 100% 29.70 in 20.0 mi SE 4.6 mph - N/A   Mostly Cloudy
9:51 AM 50.0 °F - 50.0 °F 100% 29.70 in 20.0 mi SSE 4.6 mph - N/A Rain Light Rain
10:00 AM 50.0 °F - 48.2 °F 94% 29.70 in 15.0 mi Variable 4.6 mph - N/A Rain Light Rain
10:36 AM 51.8 °F - 50.0 °F 94% 29.71 in 15.0 mi SSE 4.6 mph - N/A   Mostly Cloudy
11:00 AM 52 °F - 49 °F 85% 29.71 in 15 mi South 11.5 mph - - Rain Light Rain
11:00 AM 51.8 °F - 48.2 °F 88% 29.71 in 15.0 mi South 11.5 mph - N/A   Mostly Cloudy
12:00 PM 53.6 °F - 50.0 °F 88% 29.74 in 15.0 mi SE 11.5 mph - N/A Rain Light Rain
12:46 PM 57.2 °F - 50.0 °F 77% 29.75 in 20.0 mi SSE 12.7 mph - N/A   Mostly Cloudy
1:00 PM 57.2 °F - 48.2 °F 72% 29.74 in 30.0 mi South 15.0 mph - N/A   Mostly Cloudy
2:00 PM 57.2 °F - 46.4 °F 67% 29.76 in 30.0 mi SSW 11.5 mph 19.6 mph N/A   Scattered Clouds
3:00 PM 55.4 °F - 42.8 °F 63% 29.78 in 30.0 mi SSW 13.8 mph 21.9 mph N/A   Mostly Cloudy
3:29 PM 51.8 °F - 42.8 °F 71% 29.82 in 15.0 mi West 18.4 mph 25.3 mph N/A Rain Light Rain Showers
4:00 PM 50.0 °F - 44.6 °F 82% 29.83 in 30.0 mi SW 3.5 mph - N/A   Mostly Cloudy
5:00 PM 52 °F - 46 °F 72% 29.84 in 28 mi SSW 3.5 mph - -   Partly Cloudy
5:00 PM 51.8 °F - 46.4 °F 82% 29.84 in 30.0 mi Variable 2.3 mph - N/A   Mostly Cloudy
5:52 PM 50.0 °F - 46.4 °F 87% 29.86 in 30.0 mi NNE 4.6 mph - N/A Rain Light Rain Showers
6:00 PM 50.0 °F - 44.6 °F 82% 29.87 in 30.0 mi East 2.3 mph - N/A   Mostly Cloudy
7:00 PM 50.0 °F - 46.4 °F 87% 29.88 in 30.0 mi Variable 2.3 mph - N/A   Mostly Cloudy
8:00 PM 46.4 °F - 44.6 °F 93% 29.91 in 30.0 mi West 2.3 mph - N/A   Scattered Clouds
9:00 PM 46.4 °F 45.2 °F 44.6 °F 93% 29.93 in 30.0 mi WSW 3.5 mph - N/A   Mostly Cloudy
9:36 PM 48.2 °F - 44.6 °F 87% 29.95 in 30.0 mi SSE 5.8 mph - N/A   Scattered Clouds
10:00 PM 46.4 °F 43.5 °F 42.8 °F 87% 29.96 in 30.0 mi South 5.8 mph - N/A   Scattered Clouds
11:00 PM 45 °F - 43 °F 92% 29.98 in 28 mi SSW 2.3 mph - -   Partly Cloudy
11:00 PM 44.6 °F 43.1 °F 42.8 °F 93% 29.97 in 30.0 mi West 3.5 mph - N/A   Scattered Clouds